Regional Weather Roundup
Issued by NWS

Home | Current Version | Previous Version | Text Only | Print | Product List | Glossary On
Versions: 1 2 3 4 5 6 7 8 9 10 11 12 13 14 15 16 17 18 19 20 21 22 23 24 25 26 27 28 29 30 31 32 33 34 35 36 37 38 39 40 41 42 43 44 45 46 47 48 49 50
000
ASUS42 KKEY 280010
RWRKEY

FLORIDA REGIONAL WEATHER ROUNDUP FOR THE FLORIDA KEYS
NATIONAL WEATHER SERVICE KEY WEST FLORIDA
800 PM EDT WED MAY 27 2015

...SOUTH FLORIDA AND THE KEYS...

CITY           SKY/WX    TMP DP  RH WIND       PRES   REMARKS
FORT MYERS     CLEAR     85  62  46 E13       30.06R
SW REGIONAL AP CLEAR     84  63  49 E15       30.08R
NAPLES         PTCLDY    85  64  49 NE14      30.06R
MIAMI          MOCLDY    81  66  60 E9        30.08S
WEST KENDALL   PTCLDY    81  65  58 E12       30.08S
HOMESTEAD      PTCLDY    80  68  66 NE10      30.07S
MARATHON       PTCLDY    82  70  66 E14G20    30.05F
BOCA CHICA NAS PTCLDY    81  70  69 E17G28    30.05R
KEY WEST INTL  PTCLDY    81  71  71 E17G23    30.05S

...INTERNATIONAL WEATHER...

CITY           SKY/WX    TMP DP  RH WIND       PRES   REMARKS
NASSAU BAHAMAS PTCLDY    79  68  69 NE10      30.08S
CANCUN MEXICO  MOCLDY    84  75  74 E7        29.98S HX  92
COZUMEL MEXICO PTCLDY    81  73  78 E9        29.98R

ADJACENT COASTAL WATERS...

STATION/POSITION TIME  SKY/WX   TEMP    WIND        PRES    WAVE
                                AIR SEA DIR/SP/G            HT/PER
                 (UTC)          (F)     (DEG/KT/KT) (MB)    (FT/S)
PULASKI SHOAL LI 2300            82      70/ 10/ 11 1017.4S
SAND KEY         2350            81      90/ 19/ 22 1017.3S
SOMBRERO KEY     0000            81      80/ 21/ 23 1017.6F
LONG KEY         2300            81 84   90/ 18/ 20 1018.6R
MOLASSES REEF    0000            80 82   80/ 17/ 19 1017.8F
FOWEY ROCKS      NOT AVBL

$$


USA.gov is the U.S. government's official web portal to all federal, state and local government web resources and services.